Home > Weather > Stuttgart > Past weeks

Flag for Germany Past Weather in Stuttgart, Baden-Württemberg, Germany — Yesterday and Last 2 Weeks

Now
70 °F

Broken clouds.


Feels Like: 70 °F
Forecast: 57 / 76 °F
Wind: 5 mph from North

Location: Stuttgart-Echterdingen

Current Time: Jun 28, 2016 at 11:37:07 AM

Latest Report: Jun 28, 2016 at 11:20 AM


Visibility: N/A

Pressure: 30.09 "Hg

Humidity: 64%

Dew Point: 57 °F

Location of StuttgartLocation

Past Weather in Stuttgart — Graph

°F

Stuttgart Temperature Yesterday

Maximum temperature yesterday: 70 °F (at 4:20 PM)
Minimum temperature yesterday: 52 °F (at 5:20 AM)
Average temperature yesterday: 63 °F

High & Low Weather Summary for the Past Weeks

 TemperatureHumidityPressure
High91 °F (Jun 23, 4:50 PM)100% (Jun 15, 6:20 AM)30.27 "Hg (Jun 15, 6:20 AM)
Low48 °F (Jun 20, 4:20 AM)30% (Jun 23, 5:20 PM)29.56 "Hg (Jun 14, 12:50 PM)
Average64 °F76%29.99 "Hg
* Reported Jun 13 10:20 AM — Jun 28 10:20 AM, Stuttgart, Weather by CustomWeather, © 2016

Note: Actual official high and low records may vary slightly from our data, if they occured in-between our weather recording intervals... More about our weather records

Advertising

Stuttgart Weather History for the Previous 24 Hours

Scroll right to see more
 ConditionsComfort  
Time TempWeatherWind HumidityBarometerVisibility
10:20 AM
Tue, Jun 28
70 °FBroken clouds.6 mph64%30.09 "HgN/A
9:50 AM68 °FBroken clouds.5 mph69%30.12 "HgN/A
9:20 AM68 °FPartly sunny.6 mph69%30.09 "HgN/A
8:50 AM68 °FPartly sunny.6 mph69%30.09 "HgN/A
8:20 AM66 °FPartly sunny.2 mph73%30.12 "HgN/A
7:50 AM64 °FBroken clouds.1 mph78%30.12 "HgN/A
7:20 AM61 °FScattered clouds.1 mph83%30.12 "HgN/A
6:50 AM61 °FPartly sunny.3 mph83%30.12 "HgN/A
6:20 AM61 °FPassing clouds.2 mph83%30.12 "HgN/A
5:50 AM59 °FPassing clouds.2 mph88%30.12 "HgN/A
5:20 AM59 °FPassing clouds.1 mph82%30.12 "HgN/A
4:50 AM61 °FClear.2 mph83%30.12 "Hg10 mi
4:20 AM61 °FClear.No wind83%30.12 "Hg10 mi
3:50 AM61 °FClear.1 mph88%30.12 "Hg10 mi
3:20 AM61 °FClear.2 mph88%30.12 "Hg10 mi
2:50 AM63 °FClear.1 mph77%30.15 "Hg10 mi
2:20 AM63 °FPassing clouds.1 mph77%30.15 "HgN/A
1:50 AM63 °FClear.1 mph83%30.15 "Hg10 mi
1:20 AM63 °FClear.1 mph83%30.15 "Hg10 mi
12:50 AM63 °FClear.No wind77%30.15 "Hg10 mi
12:20 AM63 °FClear.2 mph83%30.15 "Hg10 mi
11:50 PM
Mon, Jun 27
64 °FClear.1 mph73%30.15 "Hg10 mi
11:20 PM64 °FPassing clouds.1 mph73%30.15 "HgN/A
10:50 PM64 °FPassing clouds.5 mph73%30.15 "HgN/A
10:20 PM66 °FSunny.3 mph64%30.15 "Hg10 mi
9:50 PM66 °FSunny.3 mph64%30.15 "Hg10 mi
9:20 PM66 °FSunny.3 mph64%30.15 "Hg10 mi
8:50 PM66 °FPartly sunny.5 mph64%30.15 "HgN/A
8:20 PM68 °FPartly sunny.5 mph60%30.15 "HgN/A
7:50 PM68 °FPartly sunny.5 mph60%30.12 "HgN/A
7:20 PM68 °FScattered clouds.7 mph56%30.12 "HgN/A
6:50 PM68 °FPartly sunny.6 mph56%30.12 "HgN/A
6:20 PM70 °FPartly sunny.7 mph50%30.12 "HgN/A
5:50 PM70 °FPartly sunny.3 mph50%30.12 "HgN/A
5:20 PM70 °FBroken clouds.5 mph50%30.12 "HgN/A
4:50 PM70 °FBroken clouds.8 mph50%30.15 "HgN/A
4:20 PM70 °FBroken clouds.5 mph46%30.15 "HgN/A
3:50 PM68 °FBroken clouds.5 mph49%30.15 "HgN/A
3:20 PM68 °FBroken clouds.6 mph53%30.15 "HgN/A
2:50 PM68 °FPartly sunny.7 mph49%30.15 "HgN/A
2:20 PM66 °FPartly sunny.7 mph56%30.15 "HgN/A
1:50 PM68 °FPartly sunny.6 mph53%30.15 "HgN/A
1:20 PM66 °FBroken clouds.2 mph52%30.15 "HgN/A
12:50 PM66 °FBroken clouds.6 mph56%30.15 "HgN/A
12:20 PM68 °FScattered clouds.8 mph53%30.18 "HgN/A
11:50 AM66 °FBroken clouds.7 mph56%30.18 "HgN/A
11:20 AM64 °FScattered clouds.3 mph56%30.18 "HgN/A
Weather by CustomWeather, © 2016

See weather overviewHow to use our weather pages